Temp
27 26 26 25 25 27 26 25 25 25 26 25 25 25 25 27 27 27 27 28 28 27 27 27 28 28 29 29 29 28 27 27 28 28 27 26 24 24 25 24 23 22
26 26 26 26 26 26 25 26 25 25 25 25 26 26 26 26 27 27 27 27 27 26 27 27 27 27 27 27 29 28 27 27 27 29 27 26 25 24 24 24 24 24
26 25 25 24 24 24 25 25 24 24 25 25 26 26 27 27 26 26 27 27 27 28 27 26 25 26 26 27 27 28 28 28 28 29 29 28 27 25 24 24 23 23
25 25 25 25 24 24 25 24 24 23 24 25 24 26 26 27 26 26 26 28 28 29 29 29 28 26 25 26 26 26 27 27 27 28 28 29 28 27 26 26 24 22
25 25 26 25 24 25 24 24 22 23 22 23 24 24 24 25 25 25 25 26 27 27 28 28 29 28 27 25 25 25 26 26 26 26 26 27 27 27 27 26 25 23
25 25 25 25 24 24 24 22 23 23 22 22 22 22 23 24 24 24 24 24 25 25 26 26 27 28 28 28 26 25 25 25 26 26 26 26 26 26 25 25 23 21
24 24 24 24 24 24 23 22 22 22 22 22 22 22 22 22 22 23 22 23 23 23 23 24 25 26 27 27 27 26 25 25 25 25 25 24 25 24 24 24 22 20
23 23 24 23 23 23 22 22 22 22 22 21 21 22 22 22 22 22 21 21 21 21 22 22 23 24 25 25 25 25 26 26 25 25 24 23 22 22 23 23 23 17
23 23 23 22 22 22 22 22 21 21 22 21 21 21 21 21 21 21 21 21 20 20 21 21 21 22 23 23 23 23 23 23 23 23 22 21 20 21 21 20 17 15
22 23 22 22 22 22 22 22 21 21 22 21 21 21 21 21 20 20 20 20 19 19 19 20 20 20 20 21 21 21 21 21 20 20 19 18 18 17 15 15 14 13
22 22 22 22 22 22 22 22 21 21 21 20 20 20 19 19 19 20 20 19 19 19 19 19 20 20 19 19 19 19 19 18 17 17 16 15 16 16 17 15 14 12
22 22 22 22 22 22 23 22 21 21 20 20 20 20 20 20 19 18 18 18 19 19 19 19 19 19 18 18 18 18 18 17 17 17 17 17 16 15 14 12 12 10
21 21 21 21 21 21 22 22 21 20 19 18 20 20 20 19 17 18 18 17 18 18 18 18 17 17 16 17 17 17 17 16 15 15 16 16 15 13 13 13 13 11
20 21 20 20 21 22 23 22 20 20 19 20 19 18 16 17 17 16 15 16 16 17 17 17 16 14 14 14 15 15 14 13 13 11 10 11 12 12 12 12 12 12
19 19 19 18 17 19 21 21 20 20 20 20 18 16 14 14 14 14 13 14 15 15 15 14 12 11 12 13 12 9 9 9 10 10 10 10 11 11 11 11 12 12
19 17 17 17 16 18 20 20 20 19 18 16 13 13 12 15 14 14 13 12 11 10 9 10 10 11 13 15 15 13 11 12 12 12 12 12 12 12 12 13 13 13
17 16 16 16 18 20 19 18 18 18 15 12 11 11 13 13 14 12 11 10 9 6 6 7 9 10 13 17 18 18 15 14 13 13 13 12 12 12 12 13 14 14
15 15 15 16 18 18 17 16 15 13 10 8 9 11 12 13 12 11 10 10 8 5 4 6 6 11 15 16 17 17 17 14 13 12 12 12 12 12 12 12 12 12
15 15 16 16 15 13 13 11 9 9 8 9 9 10 11 10 10 10 9 10 8 5 5 6 4 10 15 15 16 16 17 16 13 13 12 12 12 12 12 12 12 12
15 15 13 13 12 11 11 8 7 8 10 11 11 10 9 8 8 9 9 7 4 4 5 3 2 7 13 15 15 16 17 16 13 12 12 12 12 12 12 11 10 9
13 12 10 11 10 9 7 6 8 9 10 10 9 9 8 7 8 7 7 6 4 4 4 3 2 9 13 14 15 16 16 16 12 11 11 11 11 10 8 5 6 5
11 10 8 7 7 5 5 6 7 9 8 8 8 8 9 9 8 8 6 5 5 4 2 1 0 11 13 14 14 15 16 12 11 10 10 10 9 10 10 9 7 4
10 8 7 5 6 6 6 7 7 6 6 7 5 6 6 6 6 6 6 5 5 3 1 0 0 7 12 13 14 15 14 10 10 9 9 8 8 6 5 2 3 4
8 7 5 5 4 5 6 8 8 7 5 5 4 4 5 5 6 5 5 6 5 3 1 -1 0 4 9 12 13 14 13 11 10 9 8 8 9 7 3 1 3 12
7 6 5 5 5 6 6 5 5 5 5 4 3 4 4 5 5 5 5 6 4 2 6 5 2 4 8 11 13 14 13 11 11 10 8 7 8 5 2 1 3 9
6 5 5 4 5 3 2 4 5 4 4 3 3 3 2 2 2 3 3 4 1 -1 1 2 2 1 3 11 12 14 15 11 7 8 8 7 3 1 4 5 7 4
MSLP
1028.71 1028.67 1028.67 1028.75 1028.75 1028.67 1028.55 1028.47 1028.39 1028.35 1028.27 1028.15 1028.03 1027.95 1027.87 1027.79 1027.67 1027.59 1027.51 1027.39 1027.23 1027.11 1026.95 1026.83 1026.71 1026.59 1026.39 1026.27 1026.15 1026.11 1026.07 1026.03 1026.03 1025.99 1025.83 1025.67 1025.63 1025.63 1025.67 1025.67 1025.67 1025.63
1028.59 1028.55 1028.59 1028.63 1028.63 1028.59 1028.51 1028.43 1028.35 1028.27 1028.23 1028.11 1027.95 1027.83 1027.75 1027.67 1027.59 1027.51 1027.43 1027.31 1027.15 1027.07 1026.95 1026.87 1026.75 1026.63 1026.47 1026.31 1026.15 1026.03 1025.95 1025.87 1025.83 1025.75 1025.63 1025.51 1025.47 1025.51 1025.55 1025.55 1025.47 1025.39
1028.43 1028.47 1028.51 1028.55 1028.59 1028.55 1028.47 1028.35 1028.27 1028.23 1028.19 1028.11 1027.99 1027.87 1027.83 1027.71 1027.59 1027.51 1027.39 1027.19 1027.03 1026.87 1026.79 1026.71 1026.63 1026.55 1026.43 1026.27 1026.11 1025.95 1025.75 1025.63 1025.51 1025.43 1025.39 1025.35 1025.31 1025.39 1025.43 1025.39 1025.27 1025.19
1028.27 1028.27 1028.35 1028.43 1028.47 1028.47 1028.35 1028.27 1028.23 1028.23 1028.19 1028.19 1028.11 1028.03 1027.91 1027.83 1027.71 1027.59 1027.35 1027.11 1026.91 1026.75 1026.63 1026.51 1026.39 1026.35 1026.31 1026.19 1026.11 1025.99 1025.75 1025.55 1025.35 1025.31 1025.27 1025.19 1025.15 1025.19 1025.19 1025.19 1025.15 1025.15
1028.11 1028.11 1028.19 1028.27 1028.35 1028.31 1028.23 1028.19 1028.19 1028.19 1028.19 1028.15 1028.11 1028.07 1028.07 1027.95 1027.83 1027.63 1027.43 1027.23 1027.03 1026.83 1026.63 1026.43 1026.23 1026.15 1026.07 1026.03 1025.99 1025.87 1025.67 1025.47 1025.27 1025.19 1025.15 1025.07 1025.03 1025.03 1025.07 1025.07 1025.11 1025.15
1027.95 1027.95 1028.03 1028.11 1028.19 1028.15 1028.11 1028.07 1028.07 1028.11 1028.07 1028.07 1028.03 1028.07 1028.03 1027.99 1027.87 1027.71 1027.55 1027.39 1027.23 1027.07 1026.87 1026.63 1026.39 1026.15 1025.95 1025.83 1025.71 1025.63 1025.55 1025.39 1025.19 1025.11 1025.03 1024.95 1024.95 1024.95 1024.95 1025.03 1025.15 1025.27
1027.83 1027.87 1027.87 1027.87 1027.91 1027.91 1027.91 1027.91 1027.95 1027.99 1028.03 1028.03 1027.99 1028.03 1027.95 1027.87 1027.83 1027.75 1027.67 1027.59 1027.51 1027.39 1027.15 1026.91 1026.63 1026.35 1026.11 1025.87 1025.63 1025.43 1025.31 1025.23 1025.07 1024.95 1024.91 1024.95 1024.99 1025.07 1025.07 1025.11 1025.23 1025.35
1027.71 1027.75 1027.75 1027.75 1027.79 1027.79 1027.79 1027.75 1027.83 1027.87 1027.91 1027.95 1027.99 1027.95 1027.91 1027.83 1027.79 1027.75 1027.71 1027.67 1027.67 1027.55 1027.39 1027.15 1026.87 1026.59 1026.35 1026.15 1025.87 1025.59 1025.23 1025.03 1024.95 1024.87 1024.87 1024.99 1025.07 1025.15 1025.11 1025.19 1025.31 1025.43
1027.59 1027.63 1027.63 1027.67 1027.71 1027.71 1027.67 1027.63 1027.63 1027.71 1027.75 1027.83 1027.87 1027.83 1027.79 1027.75 1027.75 1027.75 1027.75 1027.71 1027.67 1027.63 1027.51 1027.35 1027.15 1026.91 1026.63 1026.43 1026.15 1025.83 1025.51 1025.35 1025.23 1025.19 1025.15 1025.19 1025.23 1025.31 1025.39 1025.47 1025.63 1025.71
1027.47 1027.47 1027.51 1027.55 1027.55 1027.55 1027.51 1027.43 1027.43 1027.51 1027.55 1027.63 1027.67 1027.71 1027.71 1027.71 1027.67 1027.71 1027.75 1027.79 1027.79 1027.71 1027.59 1027.39 1027.27 1027.15 1026.91 1026.67 1026.47 1026.27 1025.99 1025.63 1025.51 1025.43 1025.43 1025.47 1025.55 1025.63 1025.71 1025.79 1025.83 1025.87
1027.27 1027.27 1027.27 1027.31 1027.31 1027.27 1027.23 1027.19 1027.23 1027.31 1027.39 1027.47 1027.55 1027.59 1027.59 1027.63 1027.67 1027.71 1027.79 1027.87 1027.91 1027.79 1027.63 1027.47 1027.27 1027.15 1027.03 1026.87 1026.67 1026.47 1026.27 1026.03 1025.83 1025.71 1025.63 1025.63 1025.63 1025.71 1025.75 1025.83 1025.91 1025.99
1027.03 1027.07 1027.07 1027.07 1027.07 1027.07 1027.03 1026.99 1027.07 1027.19 1027.31 1027.39 1027.43 1027.47 1027.51 1027.59 1027.67 1027.79 1027.87 1027.83 1027.79 1027.71 1027.59 1027.47 1027.35 1027.19 1027.07 1026.91 1026.75 1026.59 1026.35 1026.19 1026.03 1025.95 1025.87 1025.83 1025.83 1025.83 1025.87 1025.91 1025.95 1025.91
1026.83 1026.91 1026.95 1027.03 1027.07 1027.11 1027.07 1026.99 1027.03 1027.15 1027.23 1027.35 1027.39 1027.43 1027.51 1027.59 1027.67 1027.75 1027.79 1027.83 1027.71 1027.59 1027.51 1027.43 1027.35 1027.27 1027.19 1027.03 1026.83 1026.59 1026.39 1026.31 1026.31 1026.19 1026.07 1025.99 1025.95 1025.99 1025.99 1025.99 1025.95 1025.87
1026.79 1026.83 1026.91 1026.95 1027.03 1027.07 1027.07 1027.07 1027.11 1027.15 1027.19 1027.27 1027.31 1027.43 1027.55 1027.63 1027.71 1027.79 1027.79 1027.79 1027.67 1027.59 1027.47 1027.43 1027.43 1027.39 1027.31 1027.15 1026.91 1026.63 1026.55 1026.63 1026.55 1026.51 1026.39 1026.31 1026.19 1026.11 1026.07 1025.95 1025.87 1025.75
1026.71 1026.75 1026.79 1026.91 1026.99 1027.03 1027.07 1027.11 1027.15 1027.19 1027.15 1027.19 1027.35 1027.51 1027.63 1027.71 1027.75 1027.79 1027.79 1027.75 1027.67 1027.59 1027.55 1027.55 1027.55 1027.51 1027.39 1027.15 1026.87 1026.67 1026.59 1026.51 1026.43 1026.35 1026.27 1026.19 1026.07 1025.91 1025.75 1025.63 1025.51 1025.39
1026.43 1026.51 1026.63 1026.79 1026.95 1027.03 1026.99 1026.99 1027.03 1027.07 1027.15 1027.31 1027.47 1027.63 1027.75 1027.75 1027.75 1027.75 1027.75 1027.71 1027.63 1027.55 1027.55 1027.59 1027.55 1027.43 1027.27 1027.03 1026.75 1026.59 1026.43 1026.27 1026.07 1025.91 1025.79 1025.63 1025.51 1025.35 1025.15 1025.03 1024.91 1024.79
1026.43 1026.47 1026.55 1026.75 1026.87 1026.91 1026.91 1026.95 1026.99 1027.07 1027.27 1027.47 1027.59 1027.71 1027.71 1027.63 1027.55 1027.59 1027.63 1027.63 1027.59 1027.51 1027.51 1027.51 1027.47 1027.35 1027.11 1026.75 1026.39 1026.07 1025.87 1025.71 1025.59 1025.47 1025.39 1025.31 1025.23 1025.11 1024.95 1024.75 1024.51 1024.35
1026.43 1026.43 1026.55 1026.67 1026.79 1026.83 1026.87 1026.91 1027.07 1027.27 1027.43 1027.55 1027.63 1027.67 1027.59 1027.47 1027.43 1027.43 1027.47 1027.47 1027.39 1027.35 1027.39 1027.39 1027.35 1027.19 1026.83 1026.47 1026.19 1025.91 1025.63 1025.43 1025.27 1025.19 1025.03 1024.87 1024.79 1024.67 1024.51 1024.35 1024.15 1023.99
1026.39 1026.47 1026.55 1026.63 1026.75 1026.83 1026.99 1027.11 1027.23 1027.35 1027.47 1027.59 1027.67 1027.59 1027.51 1027.43 1027.39 1027.35 1027.27 1027.19 1027.15 1027.15 1027.15 1027.15 1027.11 1026.99 1026.67 1026.39 1026.07 1025.71 1025.31 1025.03 1024.83 1024.71 1024.59 1024.43 1024.31 1024.19 1024.03 1023.91 1023.75 1023.63
1026.31 1026.39 1026.47 1026.59 1026.75 1026.87 1027.03 1027.23 1027.35 1027.47 1027.55 1027.55 1027.51 1027.47 1027.43 1027.35 1027.27 1027.15 1026.99 1026.91 1026.95 1026.95 1026.95 1026.95 1026.91 1026.87 1026.55 1026.15 1025.75 1025.31 1024.91 1024.63 1024.47 1024.35 1024.23 1024.11 1023.99 1023.87 1023.79 1023.71 1023.63 1023.59
1026.23 1026.31 1026.47 1026.63 1026.79 1026.99 1027.19 1027.35 1027.47 1027.51 1027.47 1027.43 1027.43 1027.35 1027.35 1027.27 1027.15 1026.99 1026.79 1026.71 1026.71 1026.71 1026.71 1026.71 1026.71 1026.55 1026.15 1025.79 1025.39 1024.99 1024.63 1024.35 1024.27 1024.19 1024.11 1023.99 1023.83 1023.75 1023.67 1023.67 1023.63 1023.63
1026.11 1026.31 1026.55 1026.75 1026.95 1027.11 1027.31 1027.43 1027.51 1027.47 1027.43 1027.35 1027.35 1027.27 1027.15 1027.03 1026.91 1026.75 1026.63 1026.59 1026.55 1026.55 1026.55 1026.51 1026.51 1026.23 1025.83 1025.47 1025.15 1024.79 1024.43 1024.23 1024.15 1024.07 1023.95 1023.79 1023.67 1023.51 1023.35 1023.43 1023.47 1023.47
1026.15 1026.39 1026.63 1026.83 1027.03 1027.19 1027.31 1027.39 1027.39 1027.39 1027.39 1027.31 1027.31 1027.19 1027.07 1026.91 1026.79 1026.67 1026.59 1026.51 1026.43 1026.39 1026.39 1026.31 1026.27 1026.03 1025.67 1025.31 1024.91 1024.51 1024.19 1024.07 1023.95 1023.79 1023.71 1023.63 1023.51 1023.23 1023.23 1023.31 1023.39 1023.35
1026.23 1026.43 1026.71 1026.87 1027.03 1027.19 1027.23 1027.23 1027.27 1027.31 1027.35 1027.27 1027.27 1027.15 1027.03 1026.83 1026.71 1026.59 1026.47 1026.35 1026.23 1026.15 1026.11 1026.11 1025.95 1025.79 1025.51 1025.11 1024.67 1024.19 1023.87 1023.67 1023.43 1023.23 1023.15 1023.15 1023.03 1022.95 1023.11 1023.23 1023.23 1023.15
1026.27 1026.43 1026.63 1026.79 1026.95 1027.03 1027.11 1027.23 1027.31 1027.35 1027.31 1027.27 1027.23 1027.11 1026.91 1026.75 1026.63 1026.47 1026.23 1025.99 1025.87 1025.79 1025.71 1025.67 1025.63 1025.43 1025.27 1024.91 1024.47 1023.95 1023.51 1023.27 1022.95 1022.75 1022.71 1022.71 1022.63 1022.75 1022.99 1023.07 1023.07 1022.99
1026.27 1026.43 1026.55 1026.71 1026.87 1026.95 1027.07 1027.15 1027.23 1027.31 1027.27 1027.27 1027.19 1027.07 1026.91 1026.75 1026.63 1026.43 1026.11 1025.79 1025.63 1025.63 1025.63 1025.55 1025.47 1025.23 1025.07 1024.67 1024.23 1023.67 1023.11 1022.83 1022.87 1022.79 1022.47 1022.35 1022.47 1022.59 1022.79 1022.83 1022.83 1022.87
Wind_Speed
4 3 3 3 3 4 4 4 4 4 5 5 5 4 5 5 4 5 5 6 6 6 6 7 7 6 6 5 4 4 4 5 6 7 7 6 5 5 6 5 4 4
4 3 3 3 3 3 4 4 4 4 4 5 4 4 4 4 5 4 5 5 5 5 5 6 6 7 6 6 6 6 6 6 7 6 7 7 5 4 5 6 6 6
3 3 3 2 3 4 4 4 3 3 4 5 5 4 5 5 5 5 6 6 5 5 5 4 4 6 7 7 7 7 7 8 8 6 6 6 5 5 6 6 4 4
4 3 1 2 3 4 4 3 3 3 4 5 4 5 5 6 6 7 7 7 7 7 7 6 6 4 5 7 7 7 8 7 7 6 7 7 5 4 4 4 4 3
4 2 1 2 3 4 4 3 3 3 4 3 4 4 5 6 7 7 7 7 7 8 8 8 7 6 5 6 6 7 8 7 6 6 6 7 6 4 4 3 4 3
3 3 2 2 3 4 4 3 3 3 4 3 3 3 4 5 5 6 7 7 7 8 9 9 9 9 8 7 7 6 7 7 7 6 7 7 6 4 2 3 3 2
4 3 4 4 4 4 4 3 3 3 3 3 3 4 4 4 4 5 5 7 8 8 9 9 10 10 9 9 8 7 7 8 8 8 7 6 5 5 3 3 3 3
4 4 3 3 4 4 4 3 3 3 3 3 3 4 4 4 5 4 4 5 6 8 8 9 10 10 10 9 10 10 10 7 8 6 4 4 4 5 5 5 5 3
3 3 3 4 4 4 4 4 3 3 2 3 3 3 3 3 3 4 5 6 6 6 7 7 8 9 9 9 10 11 9 7 5 5 5 5 5 6 6 4 4 3
4 4 4 4 4 5 5 4 3 3 3 3 3 3 4 4 3 3 4 5 6 7 7 7 7 8 8 9 9 10 9 8 6 6 5 4 3 3 3 4 4 4
4 4 4 5 5 5 5 4 3 3 2 3 3 3 3 3 3 4 6 6 7 8 8 8 9 8 8 8 8 8 8 7 6 4 4 4 3 4 5 4 4 4
4 4 4 4 4 4 5 4 2 2 3 3 3 4 4 3 4 4 4 7 8 9 8 8 8 8 8 9 8 7 8 7 6 5 4 4 3 3 3 3 4 5
4 3 3 3 4 5 5 4 3 3 3 3 3 4 5 4 4 5 6 6 8 8 8 8 8 7 7 8 9 9 7 5 5 6 5 4 4 4 4 5 6 5
3 4 4 4 3 4 5 5 4 4 3 3 3 3 4 4 5 5 5 5 7 7 8 7 7 8 8 9 9 8 4 4 5 5 5 6 6 7 7 7 7 8
4 3 3 2 3 4 5 5 5 5 5 3 2 3 3 4 5 5 6 7 7 7 7 6 6 7 7 8 7 6 5 6 7 9 10 10 10 9 9 9 9 8
4 3 2 2 3 4 6 6 5 4 3 3 3 4 5 6 6 6 6 7 7 5 4 5 6 6 9 17 17 10 9 9 10 10 10 10 10 10 10 10 10 9
4 3 1 2 4 5 5 4 5 3 3 3 4 4 6 7 6 6 6 6 6 5 5 5 6 6 15 19 20 22 16 11 9 9 9 9 10 11 11 11 9 9
3 2 2 3 4 5 4 3 3 3 3 4 4 6 7 6 6 5 6 7 6 5 4 6 6 10 19 19 21 22 20 13 10 9 9 9 8 9 9 9 9 8
3 3 3 3 3 3 2 3 3 4 4 5 6 6 6 6 6 7 7 7 5 5 6 6 6 9 19 21 21 21 21 18 10 9 9 9 9 9 9 9 8 7
3 4 3 2 2 2 2 3 3 4 5 6 6 6 6 6 6 8 7 5 4 4 5 5 6 8 19 21 20 21 21 18 10 9 8 8 8 9 8 9 9 6
4 3 1 1 1 2 2 3 4 6 6 5 5 6 6 7 8 7 6 5 4 4 5 6 5 13 19 20 21 21 20 17 8 7 6 6 6 5 6 4 3 2
3 1 1 1 2 2 3 4 4 6 6 5 5 6 6 6 7 7 6 5 5 5 5 6 5 14 20 20 21 20 19 10 7 6 6 6 7 8 5 3 3 3
1 1 1 2 2 3 4 5 5 5 5 4 5 5 6 6 6 6 6 6 7 5 6 6 6 12 19 20 20 20 16 7 7 6 6 7 7 6 5 3 2 1
1 1 1 2 3 4 5 5 4 4 4 3 5 6 7 7 7 7 7 7 7 7 6 5 7 9 16 20 20 20 16 9 7 7 7 6 7 4 2 1 3 7
1 1 2 3 4 4 4 4 4 5 4 4 5 5 7 6 6 7 8 7 6 6 9 9 7 9 14 19 19 19 15 8 6 6 6 6 6 4 3 3 3 4
1 2 3 3 3 3 3 3 4 5 5 5 6 6 6 6 6 7 8 7 4 4 6 7 9 9 9 18 17 17 17 7 2 4 4 2 1 1 2 3 5 2
Wind_Direction
283 278 322 318 298 285 292 321 326 314 304 299 306 301 315 303 312 320 324 320 326 329 325 326 323 314 308 307 292 282 271 265 267 267 256 244 226 223 238 242 237 230
277 292 290 290 291 300 308 305 299 308 302 307 300 311 304 320 317 310 307 308 301 301 302 304 306 302 297 291 285 279 272 266 263 261 256 246 233 244 253 248 234 233
279 291 284 294 289 285 291 294 308 308 316 309 317 320 328 319 310 315 307 301 297 290 289 279 286 293 296 293 291 281 273 265 264 265 274 252 234 231 240 247 245 237
257 251 244 278 285 288 290 297 303 321 322 320 325 330 325 322 322 314 307 303 307 307 300 294 281 282 285 288 289 285 279 275 271 276 277 279 265 245 251 266 264 277
260 265 264 268 281 282 281 290 308 318 305 308 328 329 332 322 313 312 317 319 319 316 311 308 302 287 280 277 278 280 278 274 271 269 270 274 268 265 266 270 275 272
274 263 247 248 271 271 275 282 295 291 287 306 304 321 306 305 317 322 325 325 325 325 323 318 315 308 295 282 273 271 276 272 271 269 271 276 285 270 262 283 301 325
266 277 268 253 246 262 269 271 276 288 305 306 321 309 303 305 315 321 327 336 332 326 320 315 312 313 315 312 297 279 269 271 267 263 265 273 287 298 313 317 312 301
273 273 285 291 300 294 288 289 291 297 295 314 306 299 311 318 321 319 330 327 327 319 318 317 315 315 317 314 312 305 296 278 273 281 289 293 302 296 299 288 282 278
269 277 284 287 285 281 276 274 271 280 286 290 292 293 305 314 313 321 325 325 316 317 316 318 318 316 315 309 307 308 306 312 319 322 317 309 295 292 297 307 310 317
278 274 279 281 277 272 274 271 276 286 283 283 289 302 308 310 321 324 332 324 320 317 314 310 315 312 312 316 321 326 325 321 324 321 317 310 303 303 311 318 315 313
264 266 262 262 263 267 270 272 276 284 288 293 300 294 287 304 323 337 325 316 307 304 304 306 305 308 306 310 315 315 319 320 319 320 313 308 303 295 292 287 286 275
267 271 273 275 287 292 286 286 292 306 302 302 303 303 311 321 324 316 303 296 293 293 296 300 302 305 311 309 306 304 304 303 296 295 298 300 305 310 303 295 277 273
265 279 296 308 312 308 304 305 305 289 296 304 305 305 311 312 307 304 299 299 295 291 294 301 306 307 309 306 300 297 293 308 331 324 319 319 315 313 308 297 290 282
313 315 312 305 305 301 297 302 302 301 300 300 303 314 320 317 309 302 297 293 291 293 296 302 305 308 303 297 291 291 308 318 303 302 299 299 293 286 279 275 273 272
279 273 274 295 298 288 284 285 288 287 283 286 328 332 324 314 304 299 298 296 294 294 297 302 300 294 290 284 285 291 305 299 292 288 285 278 272 264 256 254 254 256
254 249 259 284 284 278 275 270 270 280 304 340 342 329 309 297 293 295 293 288 286 285 288 290 286 283 286 288 284 280 272 266 260 254 251 248 252 253 250 247 245 245
292 279 286 282 276 277 278 292 302 316 347 340 322 307 296 285 281 284 283 285 285 286 286 284 282 279 284 283 283 283 284 283 281 281 277 277 276 276 280 276 270 262
284 294 288 275 278 283 291 298 332 346 325 314 305 294 287 285 283 283 285 280 273 275 279 281 279 282 286 288 290 289 287 283 278 271 265 259 257 258 261 262 260 258
288 283 270 268 275 297 321 337 333 327 313 301 292 287 289 289 286 284 278 273 261 263 269 270 271 277 287 291 290 288 287 285 278 271 267 263 259 255 253 256 262 270
257 258 265 277 296 314 335 334 326 303 296 289 286 286 282 284 283 276 274 269 261 264 269 264 266 275 285 288 288 288 288 288 282 279 277 272 267 264 265 269 269 269
255 262 273 301 324 337 334 314 299 289 284 282 284 289 292 286 284 280 273 267 267 269 268 261 254 272 284 289 292 292 291 291 290 290 287 285 278 281 275 251 262 281
249 282 323 333 329 320 303 288 283 281 280 285 288 286 283 283 282 282 282 282 281 278 271 267 259 278 288 293 294 294 292 291 284 277 273 272 272 265 238 202 222 218
6 343 316 306 305 291 280 279 282 285 289 293 288 282 284 284 283 285 289 288 284 275 270 268 266 276 287 293 294 293 293 285 273 261 257 263 263 253 200 212 231 246
352 326 293 288 279 271 272 277 286 289 285 284 280 288 285 286 289 285 279 271 267 264 252 257 267 268 282 292 293 292 289 283 266 251 234 229 255 217 178 237 230 243
301 277 271 264 262 267 274 279 279 278 280 284 280 280 280 283 287 286 283 275 259 250 268 275 278 279 283 290 291 292 293 287 273 255 238 221 228 196 192 213 245 262
292 282 268 259 265 275 272 264 266 272 273 274 277 275 276 275 274 277 277 274 275 281 281 275 273 273 271 284 289 291 299 313 353 338 296 225 125 154 171 197 206 216